Terug naar catalogus

STARLINK-34985

ActiefCommunicatieSSO
NORAD 65379·PAYLOAD·🇺🇸 United States

Gelanceerd Aug 30, 2025 vanaf Vandenberg Space Force Base

Loading…

Volgende Passages (komende 24 uur)

TLE

VersSource: CelesTrak SupGP

Epoch: Sep 14, 2026, 20:46 UTC

1 65379C 25191A   26257.86576389 -.00003433  00000+0 -10652-3 0  2570
2 65379  97.2846 123.9597 0001966  92.8351 303.8930 15.33449715    13

Volg STARLINK-34985 in realtime met AllMySat

Download on the App Store